Wilmington, OH

12:22 PM EST on November 23, 2017 (GMT -0500)
Airborne

Weather History for KILN - January, 2013

Change the Weather History Date:

Wednesday, January 2, 2013

  Actual Average (KFFO) Record (KFFO)
Temperature  
Mean Temperature 19 °F -  
Max Temperature 28 °F 37 °F 62 °F (2000)
Min Temperature 10 °F 22 °F 6 °F (2001)
Degree Days  
Heating Degree Days 46    
Moisture  
Dew Point 14 °F    
Average Humidity 89    
Maximum Humidity 100    
Minimum Humidity 63    
Precipitation  
Precipitation 0.01 in - - ()
Sea Level Pressure  
Sea Level Pressure 30.25 in    
Wind  
Wind Speed 1 mph (WNW)    
Max Wind Speed 8 mph    
Max Gust Speed -    
Visibility 4 miles    
Events Fog    
Averages and records for this station are not official NWS values.
T = Trace of Precipitation, MM = Missing Value Source: NWS Daily Summary

Daily Weather History Graph

Daily Weather History Graph

Search for Another Location

Airport or City:

Trip Planner

Search our weather history database for the weather conditions in past years. The results will help you decide how hot, cold, wet, or windy it might be!

Date:

Astronomy

Jan. 02, 2013 Rise Set
Actual Time 7:55 AM EST 5:23 PM EST
Civil Twilight 7:25 AM EST 5:53 PM EST
Nautical Twilight 6:51 AM EST 6:27 PM EST
Astronomical Twilight 6:19 AM EST 6:59 PM EST
Moon 10:53 PM EST (1/2) 10:38 AM EST (1/2)
Length of Visible Light 10h 28m
Length of Day
9h 27m
Waning Gibbous, 75% of the Moon is Illuminated
Jan 2
Waning Gibbous
Jan 4
Last Quarter
Jan 11
New
Jan 18
First Quarter
Jan 26
Full

Hourly Weather History & Observations

Time (EST) Temp. Windchill Dew Point Humidity Pressure Visibility Wind Dir Wind Speed Gust Speed Precip Events Conditions
12:44 AM 17.6 °F - 15.8 °F 93% 30.11 in 8.0 mi Calm Calm - N/A   Scattered Clouds
12:54 AM 19.0 °F - 16.0 °F 88% 30.21 in 7.0 mi Calm Calm - N/A   Partly Cloudy
1:54 AM 18.0 °F 12.7 °F 15.1 °F 88% 30.20 in 6.0 mi SSW 3.5 mph - N/A   Overcast
2:54 AM 18.0 °F - 14.0 °F 84% 30.22 in 8.0 mi Calm Calm - N/A   Clear
3:54 AM 18.0 °F 12.7 °F 14.0 °F 84% 30.23 in 9.0 mi West 3.5 mph - N/A   Clear
4:54 AM 18.0 °F 12.7 °F 14.0 °F 84% 30.23 in 8.0 mi WSW 3.5 mph - N/A   Clear
5:54 AM 19.0 °F 9.0 °F 17.1 °F 92% 30.24 in 4.0 mi NW 8.1 mph - N/A   Clear
6:54 AM 18.0 °F - 16.0 °F 92% 30.25 in 3.0 mi Calm Calm - N/A   Clear
7:04 AM 12.2 °F - 12.2 °F 100% 30.14 in 1.8 mi Calm Calm - N/A   Clear
7:16 AM 12.2 °F - 12.2 °F 100% 30.15 in 0.8 mi Calm Calm - N/A   Mist
7:27 AM 12.2 °F - 12.2 °F 100% 30.15 in 0.2 mi Calm Calm - N/A Fog Light Freezing Fog
7:44 AM 10.4 °F - 10.4 °F 100% 30.15 in 0.2 mi Calm Calm - 0.01 in Fog Light Freezing Fog
7:54 AM 10.9 °F - 10.9 °F 100% 30.27 in 0.2 mi Calm Calm - 0.01 in Fog Light Freezing Fog
8:54 AM 10.0 °F - 9.0 °F 95% 30.29 in 0.2 mi Calm Calm - N/A Fog Light Freezing Fog
9:32 AM 10.4 °F - 10.4 °F 100% 30.19 in 0.2 mi Calm Calm - N/A Fog Light Freezing Fog
9:54 AM 12.9 °F - 12.0 °F 96% 30.32 in 0.2 mi Calm Calm - N/A Fog Light Freezing Fog
10:24 AM 17.6 °F - 15.8 °F 93% 30.21 in 1.0 mi Calm Calm - N/A   Mist
10:31 AM 17.6 °F - 15.8 °F 93% 30.21 in 1.5 mi Calm Calm - N/A   Scattered Clouds
10:54 AM 21.0 °F - 17.1 °F 85% 30.31 in 2.5 mi Calm Calm - N/A   Clear
11:17 AM 21.2 °F - 17.6 °F 86% 30.22 in 3.0 mi Calm Calm - N/A   Clear
11:54 AM 19.9 °F - 17.1 °F 89% 30.32 in 4.0 mi Calm Calm - N/A   Clear
12:54 PM 21.0 °F - 17.1 °F 85% 30.29 in 3.0 mi Calm Calm - N/A   Clear
1:54 PM 28.0 °F - 17.1 °F 63% 30.27 in 8.0 mi Calm Calm - N/A   Clear
2:54 PM 24.1 °F - 17.1 °F 75% 30.27 in 7.0 mi Calm Calm - N/A   Clear
3:54 PM 23.0 °F 17.0 °F 17.1 °F 78% 30.27 in 7.0 mi ENE 4.6 mph - N/A   Clear
4:54 PM 21.9 °F - 16.0 °F 78% 30.28 in 7.0 mi Calm Calm - N/A   Clear
5:54 PM 19.9 °F 14.9 °F 15.1 °F 81% 30.29 in 7.0 mi NE 3.5 mph - N/A   Clear
6:54 PM 18.0 °F - 14.0 °F 84% 30.30 in 6.0 mi Calm Calm - N/A   Clear
7:54 PM 17.1 °F - 14.0 °F 88% 30.32 in 6.0 mi Calm Calm - N/A   Clear
8:54 PM 17.1 °F - 14.0 °F 88% 30.33 in 5.0 mi Calm Calm - N/A   Clear
9:54 PM 16.0 °F - 14.0 °F 92% 30.33 in 4.0 mi Calm Calm - N/A   Clear
10:54 PM 14.0 °F - 12.0 °F 92% 30.31 in 3.0 mi Calm Calm - N/A   Clear
11:54 PM 14.0 °F - 10.9 °F 88% 30.31 in 3.0 mi Calm Calm - N/A   Clear